sat.trackr.live / text

‹ back to catalog

STARLINK-31705

NORAD 59382 · 2024-062J

PAYLOAD ACTIVE UNKNOWN

§ Identity

Operator
Country
US
Launch date
2024-04-02
Launch site
AFWTR
Launch vehicle
Mass (kg)
RCS (m²)

Purposes: comms

External: N2YO · Heavens-Above · Gunter

§ Orbital elements

Epoch: 2026-05-24T14:35:39.617088Z

Period
94.11 min
Inclination
53.1611°
Eccentricity
0.0001250
Mean motion
15.30193193 rev/d
Perigee alt
474.4 km
Apogee alt
476.1 km
Semi-major
6,853.4 km
B*
5.8168e-5
RAAN
263.1139°
Arg perigee
79.4551°
Mean anomaly
280.6590°
Rev number
12,125

§ Raw data

STARLINK-317051 59382U 24062J   26144.60809742  .00001364  00000+0  58168-4 0  99992 59382  53.1611 263.1139 0001250  79.4551 280.6590 15.30193193121256

JSON: /api/v1/satellites/59382 · /tle

For live sub-satellite position, see the globe view (requires WebGL).

§ Visibility from observer

Set your observer location to see the next 7 days of passes ≥ 10°. The values pass through the URL so the page stays shareable.

No JS? Fill the form by hand. The geolocation button needs JavaScript.